Showing default

TJS-11, 59020

Orbit data source: Space-Track

TJS-11, 59020 is a Chinese payload satellite in GEO that was launched on Fri, 23 Feb 2024 UTC via a CHANG ZHENG 5 launch vehicle from the Wenchang Satellite Launch Center (WSC). Payload-class satellites include a variety of spacecraft equipped with specific instruments for various scientific and technological missions. These include communications satellites like Starlink; space stations such as the ISS; scientific satellites like the Hubble; Earth observation satellites from companies like Planet Labs, Umbra, and HawkEye 360; GPS; miniature CubeSats for education and research; and military/defense satellites.

Not visible in the next 10 days
Identifier
59020, 2024-037A
Orbit
GEO
Country
Flag of CNCN / PRC
Related business
Manufacturer
CAST
Mission
Operational Defense Sigint
Bus & Motor
TJS11, Unknown motor
Mass
~10,000 kg wet, ~6,000 kg dry
Launch date (UTC)
2024-02-23 (2 years ago)
Launch vehicle
CHANG ZHENG 5
Launch site
Wenchang Satellite Launch Center (WSC)
Object type
Payload
Rocket body
Debris
Shape & HBR
Box + 2 Pan + 1 Dish, 15.0 m
Radar Cross Section
63.841 m², Large (>1 m²)

Expand to show TLE details & history
Last TLE update: 10 hours ago

TLE from 10 hours ago
0 TJS-11
1 59020U 24037A   26195.22493615 -.00000365  00000-0  00000+0 0  9991
2 59020   4.1645 327.4164 0001789 149.4355   8.7674  1.00274115  8855
Epoch: 2026-07-14T05:23Z
TLE epoch observation values (Epoch: 2026-07-14T05:23:54.483Z)
Latitude
1.56955°
Longitude
112.60772°
Altitude
35,777.756 km
Speed
3.075 km/s
True Right ascension
08h 22m 43s
True Declination
1° 34' 05"
Sunlit
Object was in daylight at epoch
Visualization orbit readout
Latitude
Unknown
Longitude
Unknown
Altitude
Unknown
Speed
Unknown
Apparent Right ascension
Unknown
Apparent Declination
Unknown
Sunlit
N/A
Visualization observer readout
Local Sidereal Time
04:21:44
Azimuth
Unknown
Elevation
Unknown
Doppler factor
Unknown
Orbital elements
Apogee altitude
35,794.547 km
Perigee altitude
35,779.461 km
Semi-major axis
42,165.141 km
Eccentricity
0.00018
Inclination
4.1645°
RAAN
327.4164°
Arg. of periapsis
149.4355°
True anomaly
8.77053°
Mean anomaly
8.7674°
Eccentric anomaly
8.76896°
Mean motion
0.25068 °/min
Orbital period
1,436.12 mins
BSTAR
0
Loading maneuver chart data...
Computing Atmospheric mass density...
Loading historical data...
Loading historical data...
Loading historical data...
Loading historical data...
Loading historical data...
Loading historical data...
Loading historical data...
Other satellites on launch #37 in the year 2024 (2024-02-23 UTC)

Documentation

Showing up to 5 results
|